[[{"header":{"parameterUnit":"m.s-1","parameterCategory":1,"la1":30.2991,"la2":30.254,"lo1":-89.0895,"lo2":-89.0444,"dy":0.0017,"dx":0.0017,"nx":28,"ny":28,"refTime":"2024-07-10T21:00:00:Z","depth":0,"parameterNumber":2,"parameterNumberName":"U-component_of_WINDS"},"data":[0,0,0,0,0,0,0,0,0,0,0,0,0,0,0,0,0,0,0,0,0,0,0,0,0,0,0,0,0,0,0,0,0,0,0,0,0,0,0,0,0,0,0,0,0,0,0,0,0,0,0,0,0,0,0,0,0,0,1.5177,1.5177,0,1.5213,1.5213,1.5214,1.5204,1.5203,1.5203,1.5202,1.5237,1.5239,1.524,0,0,0,0,0,0,0,0,0,0,0,0,0,1.5099,1.5101,1.5177,1.5177,1.5178,1.5213,1.5213,1.5214,1.5204,1.5203,1.5202,1.5202,1.5236,1.5238,1.524,0,0,0,0,0,0,0,0,0,0,0,0,0,1.5134,1.5101,1.5177,1.5177,1.5178,1.5213,1.5213,1.5214,1.5204,1.5203,1.5202,1.5201,1.5236,1.5238,1.5241,1.5277,0,0,1.5248,1.5249,0,0,0,0,0,0,0,0,1.5132,1.5137,1.5177,1.5177,1.5178,1.5203,1.5199,1.5235,1.5205,1.5194,1.5202,1.5201,1.5226,1.523,1.5239,1.5278,1.528,1.5248,1.525,1.5251,1.5251,0,0,0,0,0,0,0,1.5129,1.5135,1.5191,1.5177,1.5178,1.5175,1.5179,1.5205,1.5216,1.5195,1.5194,1.5199,1.5226,1.5236,1.5239,1.528,1.5248,1.525,1.5252,1.5253,1.5352,1.5353,0,0,0,0,0,0,1.5127,1.5133,1.519,1.5192,1.5152,1.5178,1.5182,1.5196,1.5216,1.5217,1.52,1.5198,1.5233,1.5237,1.524,1.5284,1.5251,1.5253,1.5254,1.5351,1.5352,1.5353,0,0,0,0,0,0,1.5125,1.5132,1.5188,1.5162,1.5169,1.518,1.5196,1.5197,1.5207,1.5219,1.5221,1.5208,1.5232,1.5237,1.5268,1.5285,1.5254,1.5256,1.5349,1.5351,1.5353,1.5371,0,0,0,0,0,0,1.5123,1.5131,1.5145,1.5163,1.5171,1.5216,1.5197,1.5199,1.5211,1.521,1.5227,1.5229,1.5232,1.5264,1.527,1.5288,1.5258,1.5348,1.535,1.5352,1.5369,1.5373,1.5377,0,0,0,0,0,1.512,1.5149,1.5146,1.5153,1.5189,1.5217,1.5221,1.5224,1.5213,1.5227,1.5235,1.5228,1.5283,1.5268,1.5274,1.5293,1.5347,1.5349,1.5352,1.5367,1.5372,1.5377,0,0,0,0,0,0,1.5132,1.5151,1.5148,1.5183,1.5199,1.5215,1.5232,1.5229,1.5248,1.5245,1.5248,1.5252,1.5283,1.5291,1.5274,1.5329,1.5313,1.5317,1.5322,1.5327,1.5331,1.5328,1.526,0,0,0,0,0,1.5139,1.516,1.5176,1.5205,1.5213,1.5222,1.5234,1.5235,1.525,1.5257,1.5267,1.5282,1.5302,1.5315,1.5335,1.5371,1.5374,1.5387,1.5391,1.5394,1.5397,1.5416,1.5422,1.5362,1.5362,1.5362,0,0,1.5153,1.5166,1.5179,1.5208,1.522,1.5242,1.5227,1.5251,1.5267,1.526,1.529,1.5298,1.5315,1.5348,1.5364,1.5356,1.5414,1.5397,1.54,1.5401,1.542,1.5425,1.543,1.5364,1.5364,1.5363,0,0,1.5189,1.5202,1.5227,1.524,1.5259,1.5264,1.5271,1.5288,1.5293,1.5323,1.5319,1.5338,1.5373,1.5385,1.5396,1.5439,1.5433,1.5445,1.5465,1.5484,1.5489,1.5493,1.5508,1.5513,1.5448,1.5448,1.5448,0,1.5204,1.5237,1.5241,1.5265,1.5278,1.5274,1.53,1.5312,1.5336,1.5344,1.5336,1.538,1.5391,1.5427,1.5438,1.5447,1.5454,1.5442,1.5488,1.5492,1.5496,1.551,1.5516,1.545,1.545,1.5449,1.5449,0,1.5254,1.5277,1.5296,1.532,1.5335,1.536,1.5367,1.5382,1.5382,1.5389,1.5419,1.5433,1.5455,1.5464,1.5464,1.5501,1.5495,1.5488,1.5471,1.5503,1.5516,1.5521,1.5451,1.5451,1.5451,1.545,0,0,1.5297,1.5324,1.5331,1.5341,1.5362,1.538,1.5405,1.5427,1.544,1.5457,1.5477,1.5508,1.5501,1.5513,1.5515,1.5532,1.5564,1.5522,1.5523,1.5529,1.5605,1.5609,1.5616,1.5562,1.5563,1.5564,1.5603,0,1.5335,1.5379,1.5384,1.5423,1.5445,1.5442,1.5464,1.5479,1.5486,1.5505,1.5513,1.5534,1.5524,1.5532,1.5548,1.5557,1.5579,1.5554,1.558,1.5581,1.5575,1.5622,1.5627,1.5664,1.5608,1.5609,1.561,0,1.5384,1.5403,1.5445,1.5463,1.5472,1.5492,1.5513,1.5531,1.5549,1.5553,1.5567,1.5567,1.5592,1.5577,1.5612,1.5595,1.5606,1.5612,1.5613,1.5615,1.5596,1.5624,1.5676,1.5681,1.5618,1.5617,1.5617,0,1.541,1.5447,1.5476,1.5486,1.5508,1.5522,1.5532,1.5548,1.5561,1.558,1.5589,1.561,1.5621,1.5637,1.5643,1.5631,1.5678,1.5662,1.5681,1.5681,1.569,1.5689,1.5742,1.5699,1.5699,1.5699,1.5699,0,1.5451,1.5476,1.5489,1.5507,1.5535,1.5541,1.5569,1.5578,1.5593,1.5612,1.5612,1.563,1.5637,1.5656,1.5661,1.5689,1.5694,1.5698,1.5698,1.5697,1.5696,1.5703,1.57,1.57,1.57,1.57,1.5699,0,1.5484,1.5494,1.5526,1.5545,1.555,1.557,1.5586,1.5604,1.5612,1.5637,1.5643,1.5654,1.5677,1.5685,1.5713,1.5716,1.5748,1.5747,1.5742,1.5742,1.576,1.5758,1.5819,1.5827,1.578,1.578,1.578,0,1.5509,1.5529,1.555,1.5564,1.5574,1.5596,1.561,1.5617,1.5631,1.5653,1.5667,1.569,1.5709,1.5746,1.5757,1.5778,1.5777,1.5797,1.578,1.5778,1.5776,1.5774,1.5776,1.5799,1.58,1.58,1.5801,0,1.5552,1.5556,1.5576,1.5598,1.5615,1.5633,1.565,1.5661,1.567,1.5686,1.571,1.5724,1.5753,1.5776,1.5798,1.5808,1.5805,1.5806,1.5811,1.581,1.5806,1.5807,1.575,1.5804,1.5804,1.5804,1.5803,1.5803,1.5581,1.5598,1.5616,1.5639,1.5653,1.5669,1.5686,1.5697,1.5717,1.5741,1.5744,1.577,1.5787,1.5816,1.5827,1.5847,1.5841,1.5849,1.5851,1.5853,1.5853,1.5804,1.5851,1.5851,1.5851,1.5851,1.5851,0,1.5623,1.5634,1.5655,1.568,1.5698,1.5696,1.5715,1.5729,1.5752,1.5769,1.5787,1.5815,1.5837,1.585,1.5873,1.5886,1.5886,1.5892,1.589,1.5892,1.5858,1.5851,1.5892,1.5892,1.5892,1.5892,1.5892,1.5892,1.5646,1.5675,1.5682,1.5718,1.5729,1.5755,1.5766,1.5781,1.5794,1.5825,1.5844,1.5853,1.5868,1.5891,1.5912,1.5915,1.5923,1.5929,1.5932,1.5899,1.5895,1.5891,1.5884,1.5931,1.5931,1.5964,1.5965,1.5965]},{"header":{"parameterUnit":"m.s-1","parameterCategory":1,"la1":30.2991,"la2":30.254,"lo1":-89.0895,"lo2":-89.0444,"dy":0.0017,"dx":0.0017,"nx":28,"ny":28,"refTime":"2024-07-10T21:00:00:Z","depth":0,"parameterNumber":3,"parameterNumberName":"V-component_of_WINDS"},"data":[0,0,0,0,0,0,0,0,0,0,0,0,0,0,0,0,0,0,0,0,0,0,0,0,0,0,0,0,0,0,0,0,0,0,0,0,0,0,0,0,0,0,0,0,0,0,0,0,0,0,0,0,0,0,0,0,0,0,-2.657,-2.6571,0,-2.6677,-2.6678,-2.6679,-2.6673,-2.6671,-2.6669,-2.6668,-2.6777,-2.6781,-2.6785,0,0,0,0,0,0,0,0,0,0,0,0,0,-2.6357,-2.6361,-2.6569,-2.6571,-2.6572,-2.6677,-2.6678,-2.668,-2.6673,-2.6671,-2.6669,-2.6667,-2.6775,-2.6781,-2.6786,0,0,0,0,0,0,0,0,0,0,0,0,0,-2.6456,-2.6363,-2.6569,-2.6581,-2.6584,-2.6677,-2.6678,-2.668,-2.6673,-2.6671,-2.6669,-2.6666,-2.6774,-2.678,-2.6787,-2.6874,0,0,-2.6807,-2.6809,0,0,0,0,0,0,0,0,-2.645,-2.6463,-2.6578,-2.6581,-2.6583,-2.6659,-2.6643,-2.6745,-2.6674,-2.6639,-2.6668,-2.6665,-2.674,-2.6749,-2.6774,-2.6879,-2.6884,-2.6807,-2.6811,-2.6814,-2.6816,0,0,0,0,0,0,0,-2.6443,-2.6459,-2.6612,-2.658,-2.6583,-2.6581,-2.6593,-2.6663,-2.6701,-2.6642,-2.6642,-2.6655,-2.674,-2.6768,-2.6777,-2.6886,-2.6807,-2.6813,-2.6817,-2.6819,-2.7068,-2.7071,0,0,0,0,0,0,-2.6434,-2.6453,-2.6609,-2.6615,-2.651,-2.6587,-2.66,-2.6637,-2.67,-2.6708,-2.6657,-2.6654,-2.6758,-2.6769,-2.678,-2.6887,-2.6814,-2.682,-2.6824,-2.7065,-2.7069,-2.7072,0,0,0,0,0,0,-2.6429,-2.6448,-2.6604,-2.6534,-2.6554,-2.6593,-2.6635,-2.664,-2.6668,-2.6711,-2.6718,-2.6677,-2.6756,-2.6771,-2.6851,-2.6891,-2.6823,-2.6829,-2.7062,-2.7066,-2.707,-2.7101,0,0,0,0,0,0,-2.6423,-2.6446,-2.648,-2.6535,-2.6558,-2.6673,-2.6638,-2.6644,-2.6679,-2.6677,-2.6733,-2.674,-2.6756,-2.6841,-2.6858,-2.6898,-2.6834,-2.7059,-2.7064,-2.7069,-2.7097,-2.7106,-2.7113,0,0,0,0,0,-2.6416,-2.6484,-2.6482,-2.6501,-2.6601,-2.6676,-2.6689,-2.6706,-2.6682,-2.6717,-2.6745,-2.6738,-2.6884,-2.6849,-2.6868,-2.6911,-2.7056,-2.7063,-2.7068,-2.7093,-2.7104,-2.7113,0,0,0,0,0,0,-2.6433,-2.6492,-2.649,-2.6578,-2.6622,-2.6674,-2.6718,-2.6717,-2.6768,-2.6764,-2.6782,-2.6795,-2.6875,-2.6901,-2.6862,-2.6999,-2.6967,-2.6977,-2.6979,-2.699,-2.6998,-2.699,-2.684,0,0,0,0,0,-2.6447,-2.6503,-2.6551,-2.6625,-2.6647,-2.6679,-2.6712,-2.6721,-2.6767,-2.6786,-2.682,-2.6865,-2.692,-2.6957,-2.7011,-2.7101,-2.7112,-2.7139,-2.7148,-2.7154,-2.7163,-2.7212,-2.7225,-2.7091,-2.7091,-2.7091,0,0,-2.6477,-2.6516,-2.655,-2.6629,-2.6664,-2.6722,-2.6694,-2.6756,-2.6799,-2.6795,-2.6873,-2.6899,-2.695,-2.7036,-2.7075,-2.706,-2.7202,-2.7162,-2.7167,-2.7172,-2.722,-2.7232,-2.7243,-2.7095,-2.7095,-2.7094,0,0,-2.656,-2.6595,-2.666,-2.6696,-2.675,-2.677,-2.6786,-2.6839,-2.6856,-2.6935,-2.6933,-2.6984,-2.708,-2.7116,-2.7147,-2.7245,-2.724,-2.7262,-2.7305,-2.7353,-2.7363,-2.7373,-2.7407,-2.742,-2.727,-2.727,-2.727,0,-2.659,-2.6676,-2.6694,-2.6756,-2.6791,-2.6791,-2.6856,-2.689,-2.6959,-2.6982,-2.6965,-2.7085,-2.712,-2.7213,-2.7237,-2.7262,-2.7281,-2.7255,-2.7361,-2.737,-2.7379,-2.7412,-2.7425,-2.7272,-2.7272,-2.7272,-2.7271,0,-2.671,-2.677,-2.6816,-2.6883,-2.6923,-2.6987,-2.7013,-2.7052,-2.7058,-2.708,-2.716,-2.7201,-2.7263,-2.7286,-2.7293,-2.7381,-2.737,-2.7357,-2.7324,-2.7394,-2.7425,-2.7438,-2.7275,-2.7275,-2.7274,-2.7273,0,0,-2.6807,-2.6882,-2.6899,-2.6929,-2.6988,-2.7035,-2.7099,-2.716,-2.7192,-2.724,-2.7293,-2.7375,-2.7362,-2.7398,-2.7408,-2.745,-2.7524,-2.7431,-2.7433,-2.7447,-2.7624,-2.7634,-2.7648,-2.7522,-2.7524,-2.7526,-2.762,0,-2.6896,-2.7009,-2.7027,-2.7126,-2.7182,-2.7183,-2.7238,-2.728,-2.7303,-2.7353,-2.7379,-2.7436,-2.7415,-2.7437,-2.7478,-2.7506,-2.756,-2.75,-2.7572,-2.7574,-2.7559,-2.7665,-2.7676,-2.7762,-2.7632,-2.7634,-2.7636,0,-2.7015,-2.7066,-2.7171,-2.7223,-2.7247,-2.7296,-2.7354,-2.7402,-2.745,-2.7464,-2.7503,-2.7509,-2.7574,-2.754,-2.763,-2.7589,-2.762,-2.7638,-2.7642,-2.7649,-2.7609,-2.7675,-2.779,-2.7802,-2.7655,-2.7654,-2.7652,0,-2.7075,-2.7169,-2.7244,-2.727,-2.7333,-2.7367,-2.7395,-2.744,-2.7476,-2.7526,-2.755,-2.7607,-2.7638,-2.7682,-2.7702,-2.7675,-2.7792,-2.7759,-2.7805,-2.7804,-2.7829,-2.7827,-2.795,-2.7849,-2.7849,-2.7849,-2.7848,0,-2.7172,-2.7236,-2.7272,-2.7318,-2.739,-2.741,-2.748,-2.7507,-2.7547,-2.7599,-2.7602,-2.765,-2.7675,-2.7726,-2.7743,-2.7815,-2.7829,-2.7842,-2.7846,-2.7842,-2.784,-2.7862,-2.7856,-2.7852,-2.7851,-2.7851,-2.785,0,-2.7251,-2.7277,-2.7359,-2.7412,-2.7426,-2.7477,-2.7522,-2.7566,-2.7589,-2.7654,-2.767,-2.7706,-2.7766,-2.7791,-2.7866,-2.7877,-2.796,-2.7959,-2.7944,-2.7945,-2.799,-2.7985,-2.8131,-2.8151,-2.8037,-2.8038,-2.8039,0,-2.7311,-2.7361,-2.7418,-2.7453,-2.7482,-2.7538,-2.7574,-2.7595,-2.7633,-2.7691,-2.7729,-2.779,-2.784,-2.7937,-2.7969,-2.8026,-2.8026,-2.8073,-2.8035,-2.8029,-2.8027,-2.8023,-2.8028,-2.808,-2.8081,-2.8082,-2.8083,0,-2.7415,-2.7426,-2.7478,-2.7536,-2.758,-2.7626,-2.7671,-2.7699,-2.7727,-2.7769,-2.7831,-2.787,-2.7946,-2.8007,-2.8066,-2.8094,-2.8093,-2.8095,-2.8109,-2.8105,-2.8094,-2.81,-2.7963,-2.8092,-2.8091,-2.809,-2.809,-2.8089,-2.7486,-2.753,-2.7578,-2.7637,-2.7673,-2.7715,-2.7759,-2.7788,-2.784,-2.7904,-2.7913,-2.798,-2.8027,-2.8106,-2.8136,-2.8188,-2.8176,-2.8196,-2.8201,-2.8206,-2.8208,-2.8086,-2.8199,-2.8199,-2.8199,-2.8199,-2.8199,0,-2.7591,-2.7621,-2.7675,-2.7738,-2.7784,-2.778,-2.783,-2.7868,-2.7927,-2.7971,-2.802,-2.8091,-2.815,-2.8187,-2.8246,-2.8281,-2.8282,-2.8295,-2.8293,-2.8299,-2.8216,-2.8198,-2.8293,-2.8293,-2.8293,-2.8293,-2.8293,-2.8293,-2.765,-2.7724,-2.7741,-2.7833,-2.7863,-2.7929,-2.7957,-2.7996,-2.8031,-2.8111,-2.816,-2.8184,-2.8225,-2.8287,-2.834,-2.835,-2.8371,-2.8385,-2.8394,-2.8315,-2.8305,-2.8296,-2.8279,-2.839,-2.839,-2.8473,-2.8473,-2.8474]}]]